Location: Gleizolles
(44.4833°N, 6.7667°E)
Time: 22:10:06
(UTC+00:00)

Explorer 7 - Pass Details

Date: 23 June 2024
Orbit: 465 x 619 km, 50.3° (Epoch: 19 July)

Event Time Altitude Azimuth Distance (km) Brightness Sun altitude
Rises 11:45:43 0° 267° (W) 2,658 10.4 68.8°
Reaches altitude 10° 11:48:05 10° 275° (W) 1,741 9.5 68.8°
Maximum altitude 11:51:49 40° 346° (NNW) 742 7.8 68.7°
Drops below altitude 10° 11:55:24 10° 58° (ENE) 1,669 9.3 68.5°
Sets 11:57:37 0° 66° (ENE) 2,531 10.1 68.4°
